Location: Bushey
(51.6333°N, 0.3667°W)
Time: 02:00:25
(UTC+00:00)

Cosmos 1869 Rocket - Pass Details

Date: 03 March 2021
Orbit: 605 x 633 km, 82.5° (Epoch: 11 April)

Event Time Altitude Azimuth Distance (km) Brightness Sun altitude
Rises 19:51:31 0° 185° (S) 2,863 6.9 -20.2°
Reaches altitude 10° 19:53:42 10° 185° (S) 1,967 6.0 -20.5°
Maximum altitude 19:58:04 80° 99° (E) 633 3.4 -21.2°
Drops below altitude 10° 20:02:30 10° 13° (NNE) 2,001 6.2 -21.8°
Sets 20:04:45 0° 12° (NNE) 2,917 7.1 -22.1°
